Time,TemperatureF,DewpointF,PressureIn,WindDirection,WindDirectionDegrees,WindSpeedMPH,WindSpeedGustMPH,Humidity,HourlyPrecipIn,Conditions,Clouds,dailyrainin,SolarRadiationWatts/m^2,SoftwareType,DateUTC
2013-02-02 00:01:00,57.0,41.0,-100.00,North,357,1.0,4.0,54,0.00,,,0.00,0.000000,,2013-02-02 08:01:00,
2013-02-02 00:11:00,57.0,41.0,-100.00,North,357,1.0,4.0,54,0.00,,,0.00,0.000000,,2013-02-02 08:11:00,
2013-02-02 00:21:00,57.0,41.0,-100.00,North,357,1.0,4.0,54,0.00,,,0.00,0.000000,,2013-02-02 08:21:00,
2013-02-02 00:53:00,56.0,41.0,-100.00,NW,308,2.0,4.0,58,0.00,,,0.00,0.000000,,2013-02-02 08:53:00,
2013-02-02 01:01:00,56.0,41.0,-100.00,NW,308,2.0,4.0,58,0.00,,,0.00,0.000000,,2013-02-02 09:01:00,
2013-02-02 01:11:00,56.0,41.0,-100.00,NW,308,2.0,4.0,58,0.00,,,0.00,0.000000,,2013-02-02 09:11:00,
2013-02-02 01:22:00,56.0,41.0,-100.00,NW,308,2.0,4.0,58,0.00,,,0.00,0.000000,,2013-02-02 09:22:00,
2013-02-02 01:52:00,57.0,42.0,-100.00,North,8,3.0,7.0,57,0.00,,,-99.99,0.000000,,2013-02-02 09:52:00,
2013-02-02 02:01:00,57.0,42.0,-100.00,North,8,3.0,7.0,57,0.00,,,-99.99,0.000000,,2013-02-02 10:01:00,
2013-02-02 02:11:00,57.0,42.0,-100.00,North,8,3.0,7.0,57,0.00,,,-99.99,0.000000,,2013-02-02 10:11:00,
2013-02-02 02:21:00,57.0,42.0,-100.00,North,8,3.0,7.0,57,0.00,,,-99.99,0.000000,,2013-02-02 10:21:00,
2013-02-02 02:52:00,56.0,42.0,-100.00,NNE,33,2.0,5.0,59,0.00,,,0.00,0.000000,,2013-02-02 10:52:00,
2013-02-02 03:01:00,56.0,42.0,-100.00,NNE,33,2.0,5.0,59,0.00,,,0.00,0.000000,,2013-02-02 11:01:00,
2013-02-02 03:11:00,56.0,42.0,-100.00,NNE,33,2.0,5.0,59,0.00,,,0.00,0.000000,,2013-02-02 11:11:00,
2013-02-02 03:21:00,56.0,42.0,-100.00,NNE,33,2.0,5.0,59,0.00,,,0.00,0.000000,,2013-02-02 11:21:00,
2013-02-02 03:52:00,54.0,40.0,-100.00,North,1,4.0,6.0,60,0.00,,,0.00,0.000000,,2013-02-02 11:52:00,
2013-02-02 04:01:00,54.0,40.0,-100.00,North,1,4.0,6.0,60,0.00,,,0.00,0.000000,,2013-02-02 12:01:00,
2013-02-02 04:11:00,54.0,40.0,-100.00,North,1,4.0,6.0,60,0.00,,,0.00,0.000000,,2013-02-02 12:11:00,
2013-02-02 04:22:00,54.0,40.0,-100.00,North,1,4.0,6.0,60,0.00,,,0.00,0.000000,,2013-02-02 12:22:00,
2013-02-02 04:52:00,53.0,42.0,-100.00,North,357,7.0,10.0,65,0.00,,,0.00,0.000000,,2013-02-02 12:52:00,
2013-02-02 05:02:00,53.0,42.0,-100.00,North,357,7.0,10.0,65,0.00,,,0.00,0.000000,,2013-02-02 13:02:00,
2013-02-02 05:11:00,53.0,42.0,-100.00,North,357,7.0,10.0,65,0.00,,,0.00,0.000000,,2013-02-02 13:11:00,
2013-02-02 05:21:00,53.0,42.0,-100.00,North,357,7.0,10.0,65,0.00,,,0.00,0.000000,,2013-02-02 13:21:00,
2013-02-02 05:52:00,53.0,42.0,-100.00,North,5,6.0,10.0,65,0.00,,,0.00,0.000000,,2013-02-02 13:52:00,
2013-02-02 06:02:00,53.0,42.0,-100.00,North,5,6.0,10.0,65,0.00,,,0.00,0.000000,,2013-02-02 14:02:00,
2013-02-02 06:11:00,53.0,42.0,-100.00,North,5,6.0,10.0,65,0.00,,,0.00,0.000000,,2013-02-02 14:11:00,
2013-02-02 06:22:00,53.0,42.0,-100.00,North,5,6.0,10.0,65,0.00,,,0.00,0.000000,,2013-02-02 14:22:00,
2013-02-02 06:52:00,53.0,43.0,-100.00,NE,56,0.0,8.0,69,0.00,,,0.00,0.000000,,2013-02-02 14:52:00,
2013-02-02 07:03:00,53.0,43.0,-100.00,NE,56,0.0,8.0,69,0.00,,,0.00,0.000000,,2013-02-02 15:03:00,
2013-02-02 07:12:00,53.0,43.0,-100.00,NE,56,0.0,8.0,69,0.00,,,0.00,0.000000,,2013-02-02 15:12:00,
2013-02-02 07:21:00,53.0,43.0,-100.00,NE,56,0.0,8.0,69,0.00,,,0.00,0.000000,,2013-02-02 15:21:00,
2013-02-02 07:52:00,54.0,44.0,-100.00,NNE,31,0.0,3.0,68,0.00,,,0.00,35.000000,,2013-02-02 15:52:00,
2013-02-02 08:02:00,54.0,44.0,-100.00,NNE,31,0.0,3.0,68,0.00,,,0.00,35.000000,,2013-02-02 16:02:00,
2013-02-02 08:11:00,54.0,44.0,-100.00,NNE,31,0.0,3.0,68,0.00,,,0.00,35.000000,,2013-02-02 16:11:00,
2013-02-02 08:22:00,54.0,44.0,-100.00,NNE,31,0.0,3.0,68,0.00,,,0.00,35.000000,,2013-02-02 16:22:00,
2013-02-02 08:52:00,59.0,44.0,-100.00,NNE,26,4.0,6.0,57,0.00,,,0.00,191.000000,,2013-02-02 16:52:00,
2013-02-02 09:02:00,59.0,44.0,-100.00,NNE,26,4.0,6.0,57,0.00,,,0.00,191.000000,,2013-02-02 17:02:00,
2013-02-02 09:11:00,59.0,44.0,-100.00,NNE,26,4.0,6.0,57,0.00,,,0.00,191.000000,,2013-02-02 17:11:00,
2013-02-02 09:22:00,59.0,44.0,-100.00,NNE,26,4.0,6.0,57,0.00,,,0.00,191.000000,,2013-02-02 17:22:00,
2013-02-02 09:52:00,62.0,42.0,-100.00,North,2,5.0,9.0,48,0.00,,,0.00,418.000000,,2013-02-02 17:52:00,
2013-02-02 10:02:00,62.0,42.0,-100.00,North,2,5.0,9.0,48,0.00,,,0.00,418.000000,,2013-02-02 18:02:00,
2013-02-02 10:12:00,62.0,42.0,-100.00,North,2,5.0,9.0,48,0.00,,,0.00,418.000000,,2013-02-02 18:12:00,
2013-02-02 10:21:00,62.0,42.0,-100.00,North,2,5.0,9.0,48,0.00,,,0.00,418.000000,,2013-02-02 18:21:00,
2013-02-02 10:52:00,69.0,39.0,-100.00,North,10,4.0,9.0,34,0.00,,,0.00,687.000000,,2013-02-02 18:52:00,
2013-02-02 11:01:00,69.0,39.0,-100.00,North,10,4.0,9.0,34,0.00,,,0.00,687.000000,,2013-02-02 19:01:00,
2013-02-02 11:11:00,69.0,39.0,-100.00,North,10,4.0,9.0,34,0.00,,,0.00,687.000000,,2013-02-02 19:11:00,
2013-02-02 11:21:00,69.0,39.0,-100.00,North,10,4.0,9.0,34,0.00,,,0.00,687.000000,,2013-02-02 19:21:00,
2013-02-02 11:52:00,73.0,38.0,-100.00,NNW,344,4.0,11.0,28,0.00,,,0.00,806.000000,,2013-02-02 19:52:00,
2013-02-02 12:01:00,73.0,38.0,-100.00,NNW,344,4.0,11.0,28,0.00,,,0.00,806.000000,,2013-02-02 20:01:00,
2013-02-02 12:11:00,73.0,38.0,-100.00,NNW,344,4.0,11.0,28,0.00,,,0.00,806.000000,,2013-02-02 20:11:00,
2013-02-02 12:21:00,73.0,38.0,-100.00,NNW,344,4.0,11.0,28,0.00,,,0.00,806.000000,,2013-02-02 20:21:00,
2013-02-02 12:52:00,76.0,36.0,-100.00,ENE,60,2.0,11.0,23,0.00,,,0.00,850.000000,,2013-02-02 20:52:00,
2013-02-02 13:02:00,76.0,36.0,-100.00,ENE,60,2.0,11.0,23,0.00,,,0.00,850.000000,,2013-02-02 21:02:00,
2013-02-02 13:11:00,76.0,36.0,-100.00,ENE,60,2.0,11.0,23,0.00,,,0.00,850.000000,,2013-02-02 21:11:00,
2013-02-02 13:21:00,76.0,36.0,-100.00,ENE,60,2.0,11.0,23,0.00,,,0.00,850.000000,,2013-02-02 21:21:00,
2013-02-02 13:52:00,76.0,37.0,-100.00,NNW,336,9.0,14.0,24,0.00,,,0.00,800.000000,,2013-02-02 21:52:00,
2013-02-02 14:02:00,76.0,37.0,-100.00,NNW,336,9.0,14.0,24,0.00,,,0.00,800.000000,,2013-02-02 22:02:00,
2013-02-02 14:11:00,76.0,37.0,-100.00,NNW,336,9.0,14.0,24,0.00,,,0.00,800.000000,,2013-02-02 22:11:00,
2013-02-02 14:21:00,76.0,37.0,-100.00,NNW,336,9.0,14.0,24,0.00,,,0.00,800.000000,,2013-02-02 22:21:00,
2013-02-02 14:52:00,77.0,36.0,-100.00,WNW,303,7.0,14.0,23,0.00,,,0.00,681.000000,,2013-02-02 22:52:00,
2013-02-02 15:01:00,77.0,36.0,-100.00,WNW,303,7.0,14.0,23,0.00,,,0.00,681.000000,,2013-02-02 23:01:00,
2013-02-02 15:11:00,77.0,36.0,-100.00,WNW,303,7.0,14.0,23,0.00,,,0.00,681.000000,,2013-02-02 23:11:00,
2013-02-02 15:21:00,77.0,36.0,-100.00,WNW,303,7.0,14.0,23,0.00,,,0.00,681.000000,,2013-02-02 23:21:00,
2013-02-02 15:52:00,77.0,35.0,-100.00,WNW,301,9.0,13.0,22,0.00,,,0.00,491.000000,,2013-02-02 23:52:00,
2013-02-02 16:01:00,77.0,35.0,-100.00,WNW,301,9.0,13.0,22,0.00,,,0.00,491.000000,,2013-02-03 00:01:00,
2013-02-02 16:11:00,77.0,35.0,-100.00,WNW,301,9.0,13.0,22,0.00,,,0.00,491.000000,,2013-02-03 00:11:00,
2013-02-02 16:21:00,77.0,35.0,-100.00,WNW,301,9.0,13.0,22,0.00,,,0.00,491.000000,,2013-02-03 00:21:00,
2013-02-02 16:52:00,74.0,36.0,-100.00,NW,310,8.0,16.0,25,0.00,,,0.00,212.000000,,2013-02-03 00:52:00,
2013-02-02 17:02:00,74.0,36.0,-100.00,NW,310,8.0,16.0,25,0.00,,,0.00,212.000000,,2013-02-03 01:02:00,
2013-02-02 17:11:00,74.0,36.0,-100.00,NW,310,8.0,16.0,25,0.00,,,0.00,212.000000,,2013-02-03 01:11:00,
2013-02-02 17:21:00,74.0,36.0,-100.00,NW,310,8.0,16.0,25,0.00,,,0.00,212.000000,,2013-02-03 01:21:00,
2013-02-02 17:52:00,72.0,34.0,-100.00,NW,326,10.0,15.0,25,0.00,,,0.00,17.000000,,2013-02-03 01:52:00,
2013-02-02 18:01:00,72.0,34.0,-100.00,NW,326,10.0,15.0,25,0.00,,,0.00,17.000000,,2013-02-03 02:01:00,
2013-02-02 18:11:00,72.0,34.0,-100.00,NW,326,10.0,15.0,25,0.00,,,0.00,17.000000,,2013-02-03 02:11:00,
2013-02-02 18:21:00,72.0,34.0,-100.00,NW,326,10.0,15.0,25,0.00,,,0.00,17.000000,,2013-02-03 02:21:00,
2013-02-02 18:52:00,70.0,34.0,-100.00,NNW,327,5.0,15.0,27,0.00,,,0.00,0.000000,,2013-02-03 02:52:00,
2013-02-02 19:02:00,70.0,34.0,-100.00,NNW,327,5.0,15.0,27,0.00,,,0.00,0.000000,,2013-02-03 03:02:00,
2013-02-02 19:11:00,70.0,34.0,-100.00,NNW,327,5.0,15.0,27,0.00,,,0.00,0.000000,,2013-02-03 03:11:00,
2013-02-02 19:21:00,70.0,34.0,-100.00,NNW,327,5.0,15.0,27,0.00,,,0.00,0.000000,,2013-02-03 03:21:00,
2013-02-02 19:52:00,67.0,35.0,-100.00,NNW,331,5.0,9.0,30,0.00,,,0.00,0.000000,,2013-02-03 03:52:00,
2013-02-02 20:01:00,67.0,35.0,-100.00,NNW,331,5.0,9.0,30,0.00,,,0.00,0.000000,,2013-02-03 04:01:00,
2013-02-02 20:11:00,67.0,35.0,-100.00,NNW,331,5.0,9.0,30,0.00,,,0.00,0.000000,,2013-02-03 04:11:00,
2013-02-02 20:21:00,67.0,35.0,-100.00,NNW,331,5.0,9.0,30,0.00,,,0.00,0.000000,,2013-02-03 04:21:00,
2013-02-02 20:52:00,68.0,38.0,-100.00,North,356,5.0,9.0,33,0.00,,,0.00,0.000000,,2013-02-03 04:52:00,
2013-02-02 21:03:00,68.0,38.0,-100.00,North,356,5.0,9.0,33,0.00,,,0.00,0.000000,,2013-02-03 05:03:00,
2013-02-02 21:11:00,68.0,38.0,-100.00,North,356,5.0,9.0,33,0.00,,,0.00,0.000000,,2013-02-03 05:11:00,
2013-02-02 21:22:00,68.0,38.0,-100.00,North,356,5.0,9.0,33,0.00,,,0.00,0.000000,,2013-02-03 05:22:00,
2013-02-02 21:52:00,66.0,38.0,-100.00,North,356,0.0,8.0,36,0.00,,,0.00,0.000000,,2013-02-03 05:52:00,
2013-02-02 22:02:00,66.0,38.0,-100.00,North,356,0.0,8.0,36,0.00,,,0.00,0.000000,,2013-02-03 06:02:00,
2013-02-02 22:11:00,66.0,38.0,-100.00,North,356,0.0,8.0,36,0.00,,,0.00,0.000000,,2013-02-03 06:11:00,
2013-02-02 22:21:00,66.0,38.0,-100.00,North,356,0.0,8.0,36,0.00,,,0.00,0.000000,,2013-02-03 06:21:00,
2013-02-02 22:52:00,65.0,40.0,-100.00,NNE,12,4.0,6.0,40,0.00,,,0.00,0.000000,,2013-02-03 06:52:00,
2013-02-02 23:01:00,65.0,40.0,-100.00,NNE,12,4.0,6.0,40,0.00,,,0.00,0.000000,,2013-02-03 07:01:00,
2013-02-02 23:11:00,65.0,40.0,-100.00,NNE,12,4.0,6.0,40,0.00,,,0.00,0.000000,,2013-02-03 07:11:00,
2013-02-02 23:21:00,65.0,40.0,-100.00,NNE,12,4.0,6.0,40,0.00,,,0.00,0.000000,,2013-02-03 07:21:00,
2013-02-02 23:52:00,67.0,39.0,-100.00,North,350,8.0,11.0,36,0.00,,,0.00,0.000000,,2013-02-03 07:52:00,